[[{"header":{"parameterUnit":"m.s-1","parameterCategory":1,"la1":30.2991,"la2":30.254,"lo1":-89.0895,"lo2":-89.0444,"dy":0.0017,"dx":0.0017,"nx":28,"ny":28,"refTime":"2024-06-30T03:00:00:Z","depth":0,"parameterNumber":2,"parameterNumberName":"U-component_of_WINDS"},"data":[0,0,0,0,0,0,0,0,0,0,0,0,0,0,0,0,0,0,0,0,0,0,0,0,0,0,0,0,0,0,0,0,0,0,0,0,0,0,0,0,0,0,0,0,0,0,0,0,0,0,0,0,0,0,0,0,0,0,3.8664,3.8666,0,3.882,3.8822,3.8823,3.8725,3.8721,3.8716,3.8712,3.8879,3.8887,3.8896,0,0,0,0,0,0,0,0,0,0,0,0,0,3.8289,3.8296,3.8664,3.8666,3.8668,3.882,3.8822,3.8824,3.8726,3.8721,3.8715,3.871,3.8876,3.8886,3.8896,0,0,0,0,0,0,0,0,0,0,0,0,0,3.8449,3.8299,3.8664,3.8637,3.8636,3.8819,3.8822,3.8824,3.8727,3.872,3.8714,3.8707,3.8872,3.8885,3.8898,3.9117,0,0,3.8938,3.8944,0,0,0,0,0,0,0,0,3.844,3.8463,3.8639,3.8639,3.8639,3.8746,3.875,3.8923,3.8729,3.8693,3.8712,3.8704,3.8841,3.8856,3.89,3.9125,3.9132,3.8939,3.8947,3.8953,3.8956,0,0,0,0,0,0,0,3.8429,3.8456,3.8726,3.8642,3.8642,3.862,3.8635,3.8783,3.8804,3.8696,3.8689,3.8708,3.8839,3.8888,3.8904,3.9135,3.8939,3.895,3.8958,3.8964,3.9548,3.9556,0,0,0,0,0,0,3.8419,3.8447,3.8721,3.873,3.852,3.8632,3.8649,3.8719,3.8802,3.8808,3.8714,3.8703,3.8869,3.8888,3.8909,3.9172,3.8953,3.8965,3.8972,3.9541,3.955,3.9558,0,0,0,0,0,0,3.8412,3.8445,3.8715,3.8587,3.862,3.8646,3.8725,3.8725,3.8774,3.8816,3.882,3.876,3.8864,3.8891,3.9066,3.9176,3.8971,3.8983,3.9532,3.9544,3.9554,3.9699,0,0,0,0,0,0,3.8401,3.8442,3.8524,3.859,3.8627,3.8867,3.8732,3.8733,3.8796,3.8783,3.886,3.8866,3.8861,3.9047,3.9079,3.9191,3.8993,3.9522,3.9537,3.9551,3.9684,3.9714,3.9739,0,0,0,0,0,3.8388,3.856,3.8529,3.8563,3.873,3.8874,3.8895,3.8884,3.8805,3.8889,3.8916,3.8863,3.9159,3.9066,3.9101,3.9218,3.9515,3.9533,3.9549,3.9672,3.9708,3.9739,0,0,0,0,0,0,3.851,3.8568,3.8534,3.8732,3.8799,3.8857,3.8962,3.8923,3.9014,3.8999,3.8983,3.9001,3.9185,3.9219,3.9114,3.9435,3.9325,3.935,3.9406,3.9441,3.9468,3.9456,3.9004,0,0,0,0,0,3.8559,3.8669,3.8715,3.8886,3.892,3.8936,3.8998,3.8984,3.9053,3.9081,3.912,3.9191,3.93,3.9372,3.9475,3.9689,3.9705,3.9787,3.9814,3.9837,3.9859,3.9976,4.0013,3.9615,3.9615,3.9615,0,0,3.8664,3.8709,3.878,3.8911,3.8961,3.9077,3.896,3.9088,3.9175,3.9101,3.9268,3.93,3.9378,3.9574,3.9663,3.9609,3.9972,3.9859,3.9876,3.9886,3.9997,4.0035,4.0069,3.9627,3.9625,3.9623,0,0,3.8912,3.8957,3.9104,3.9156,3.9232,3.9241,3.9276,3.9341,3.9359,3.9526,3.9473,3.9577,3.9765,3.9823,3.9877,4.0148,4.0104,4.0182,4.0326,4.044,4.0471,4.0499,4.0597,4.0632,4.0204,4.0205,4.0205,0,3.9033,3.9203,3.9185,3.9317,3.9377,3.9314,3.9464,3.9515,3.9622,3.9666,3.9603,3.9837,3.9886,4.0095,4.0161,4.0206,4.0248,4.0174,4.0468,4.0495,4.0521,4.0614,4.0651,4.0214,4.0213,4.0212,4.0211,0,3.9348,3.9468,3.9578,3.9679,3.9752,3.9893,3.9898,3.9974,3.9954,3.997,4.0142,4.0198,4.0311,4.0359,4.0341,4.0567,4.053,4.0469,4.0357,4.0568,4.0656,4.0691,4.0227,4.0223,4.0221,4.0218,0,0,3.9678,3.9768,3.9809,3.9854,3.9933,4.0027,4.0165,4.0273,4.0339,4.0415,4.0532,4.0692,4.0635,4.0697,4.0685,4.0785,4.0998,4.0711,4.0712,4.0763,4.125,4.1297,4.1338,4.0968,4.0975,4.0981,4.1244,0,3.9932,4.017,4.0159,4.0383,4.0494,4.0436,4.0557,4.062,4.0639,4.0738,4.076,4.0874,4.079,4.0827,4.0923,4.0951,4.1096,4.0932,4.1079,4.1085,4.1061,4.1384,4.1433,4.1679,4.1278,4.1284,4.1288,0,4.026,4.0344,4.058,4.0642,4.0688,4.0797,4.0895,4.099,4.1061,4.1068,4.1137,4.1109,4.1252,4.1136,4.1334,4.1223,4.1282,4.1306,4.1315,4.1329,4.1199,4.1407,4.1757,4.1794,4.1341,4.1337,4.1333,0,4.0477,4.0651,4.0813,4.0855,4.0932,4.101,4.1046,4.111,4.1176,4.1263,4.1306,4.1409,4.1466,4.1548,4.155,4.1465,4.175,4.1634,4.1762,4.1762,4.1824,4.1821,4.219,4.1863,4.1862,4.1861,4.186,0,4.0762,4.0908,4.0912,4.1013,4.1176,4.1162,4.1324,4.1353,4.1411,4.1517,4.1474,4.1576,4.1571,4.1675,4.1678,4.1842,4.1868,4.1879,4.1878,4.1883,4.1882,4.1923,4.1906,4.1871,4.1869,4.1867,4.1865,0,4.1033,4.1041,4.1215,4.1273,4.1292,4.1409,4.146,4.1557,4.1572,4.1708,4.1739,4.1765,4.1885,4.1894,4.2034,4.2036,4.2234,4.2215,4.221,4.2207,4.2333,4.2322,4.2742,4.2797,4.2433,4.2437,4.244,0,4.1214,4.1325,4.1395,4.1462,4.1502,4.1611,4.1678,4.1669,4.1741,4.183,4.1917,4.2032,4.2124,4.2319,4.2351,4.2459,4.2442,4.2582,4.2458,4.2459,4.2445,4.2438,4.245,4.2606,4.261,4.2613,4.2616,0,4.1535,4.1533,4.1629,4.1728,4.1808,4.1886,4.1958,4.2017,4.2017,4.21,4.2221,4.2292,4.2434,4.255,4.2655,4.2695,4.2657,4.2654,4.269,4.2696,4.2689,4.2695,4.2276,4.2645,4.2642,4.264,4.2638,4.2637,4.1767,4.1863,4.1927,4.2036,4.2089,4.2158,4.2251,4.2278,4.2378,4.2491,4.2481,4.2615,4.2685,4.2821,4.2869,4.2976,4.2929,4.298,4.2993,4.3006,4.3019,4.2671,4.2995,4.2995,4.2994,4.2993,4.2992,0,4.2086,4.2124,4.2224,4.2326,4.2413,4.2367,4.2445,4.2521,4.2639,4.2706,4.2797,4.2937,4.3049,4.309,4.32,4.3278,4.3263,4.3307,4.3302,4.3312,4.3055,4.3013,4.3317,4.3317,4.3317,4.3317,4.3317,4.3317,4.2262,4.2422,4.2429,4.2615,4.2653,4.2783,4.2831,4.2896,4.2949,4.3106,4.3198,4.3223,4.3281,4.3395,4.3497,4.3506,4.3549,4.3601,4.3603,4.3362,4.333,4.3299,4.326,4.361,4.361,4.3851,4.3853,4.3855]},{"header":{"parameterUnit":"m.s-1","parameterCategory":1,"la1":30.2991,"la2":30.254,"lo1":-89.0895,"lo2":-89.0444,"dy":0.0017,"dx":0.0017,"nx":28,"ny":28,"refTime":"2024-06-30T03:00:00:Z","depth":0,"parameterNumber":3,"parameterNumberName":"V-component_of_WINDS"},"data":[0,0,0,0,0,0,0,0,0,0,0,0,0,0,0,0,0,0,0,0,0,0,0,0,0,0,0,0,0,0,0,0,0,0,0,0,0,0,0,0,0,0,0,0,0,0,0,0,0,0,0,0,0,0,0,0,0,0,0.4501,0.4501,0,0.4512,0.4512,0.4512,0.4478,0.4477,0.4476,0.4475,0.4488,0.4489,0.449,0,0,0,0,0,0,0,0,0,0,0,0,0,0.4451,0.4452,0.4501,0.4501,0.4501,0.4512,0.4512,0.4512,0.4479,0.4477,0.4476,0.4475,0.4487,0.4489,0.4491,0,0,0,0,0,0,0,0,0,0,0,0,0,0.4468,0.4452,0.4501,0.4485,0.4484,0.4512,0.4512,0.4512,0.4479,0.4477,0.4476,0.4474,0.4487,0.4489,0.4491,0.4534,0,0,0.4497,0.4498,0,0,0,0,0,0,0,0,0.4467,0.447,0.4488,0.4487,0.4485,0.4492,0.4499,0.4519,0.4479,0.4481,0.4475,0.4474,0.4491,0.4492,0.4498,0.4534,0.4535,0.4497,0.4498,0.4499,0.4499,0,0,0,0,0,0,0,0.4466,0.447,0.4505,0.4488,0.4486,0.4478,0.4479,0.4503,0.4494,0.4481,0.4478,0.448,0.449,0.4496,0.4498,0.4535,0.4497,0.4499,0.45,0.45,0.4606,0.4607,0,0,0,0,0,0,0.4467,0.4469,0.4505,0.4505,0.4472,0.448,0.4481,0.4491,0.4494,0.4493,0.4481,0.4478,0.4493,0.4495,0.4498,0.4547,0.4499,0.4501,0.4502,0.4604,0.4606,0.4608,0,0,0,0,0,0,0.4466,0.447,0.4504,0.4486,0.449,0.4483,0.4495,0.4492,0.4499,0.4494,0.4493,0.4489,0.4492,0.4495,0.4525,0.4547,0.4502,0.4503,0.4602,0.4605,0.4607,0.4647,0,0,0,0,0,0,0.4465,0.447,0.4486,0.4487,0.4491,0.4531,0.4496,0.4494,0.4502,0.4498,0.4501,0.45,0.4491,0.4522,0.4527,0.4549,0.4505,0.46,0.4603,0.4606,0.4644,0.4651,0.4657,0,0,0,0,0,0.4463,0.4498,0.4487,0.4492,0.4511,0.4532,0.4534,0.4523,0.4504,0.452,0.4517,0.45,0.4544,0.4525,0.453,0.4554,0.4599,0.4603,0.4606,0.4641,0.465,0.4657,0,0,0,0,0,0,0.4501,0.4498,0.4486,0.4522,0.4528,0.4526,0.4546,0.4532,0.4544,0.454,0.4525,0.4526,0.4558,0.4559,0.4538,0.4595,0.4568,0.4573,0.4593,0.4601,0.4607,0.4607,0.4506,0,0,0,0,0,0.4513,0.453,0.4527,0.4559,0.4562,0.4554,0.4563,0.4553,0.4558,0.4561,0.456,0.4566,0.4581,0.4591,0.4605,0.4644,0.4644,0.4663,0.4669,0.4674,0.4679,0.4699,0.4707,0.462,0.462,0.462,0,0,0.454,0.454,0.4552,0.4567,0.457,0.4587,0.4556,0.4577,0.459,0.4564,0.4591,0.4591,0.4596,0.4631,0.4646,0.4632,0.4702,0.4679,0.4683,0.4685,0.4703,0.4711,0.4719,0.4623,0.4622,0.4622,0,0,0.4596,0.4598,0.4625,0.4628,0.4633,0.4627,0.4634,0.4634,0.4633,0.466,0.464,0.4656,0.4682,0.4687,0.4693,0.475,0.4734,0.4755,0.4788,0.4808,0.4815,0.4821,0.484,0.4848,0.4759,0.4759,0.4759,0,0.4628,0.4654,0.4641,0.4662,0.4669,0.4645,0.4672,0.4676,0.4685,0.4691,0.4675,0.4707,0.4709,0.4744,0.4758,0.4763,0.477,0.4754,0.4815,0.4821,0.4826,0.4845,0.4852,0.4761,0.4761,0.4761,0.4761,0,0.4693,0.4711,0.4732,0.4741,0.475,0.4774,0.4764,0.4775,0.4764,0.476,0.4788,0.4789,0.4802,0.481,0.48,0.4843,0.4834,0.4817,0.479,0.4837,0.4854,0.4861,0.4765,0.4764,0.4763,0.4763,0,0,0.4775,0.4774,0.4782,0.4785,0.4788,0.4802,0.4825,0.4837,0.4847,0.4854,0.4872,0.4894,0.4878,0.4885,0.4875,0.4893,0.4937,0.4873,0.4873,0.4885,0.4983,0.4996,0.5004,0.4927,0.4928,0.4929,0.4982,0,0.483,0.4868,0.4856,0.4895,0.4911,0.4889,0.4908,0.4912,0.4909,0.4922,0.4918,0.4934,0.4912,0.4915,0.4931,0.4928,0.4956,0.4924,0.4944,0.4944,0.4943,0.5013,0.5027,0.5078,0.4989,0.499,0.4991,0,0.49,0.4908,0.4949,0.4948,0.4954,0.4972,0.4982,0.4995,0.4999,0.4995,0.5002,0.4988,0.501,0.4983,0.5013,0.4991,0.4998,0.4998,0.4999,0.5001,0.4971,0.5016,0.5093,0.5101,0.5002,0.5001,0.5,0,0.4954,0.4976,0.5003,0.5006,0.5006,0.5019,0.502,0.5022,0.503,0.5039,0.5043,0.5055,0.5061,0.507,0.506,0.5041,0.5091,0.5063,0.5088,0.5088,0.51,0.5099,0.5179,0.5105,0.5105,0.5105,0.5105,0,0.5017,0.5042,0.5027,0.5044,0.5071,0.5057,0.5085,0.5083,0.5085,0.51,0.5082,0.5097,0.5083,0.5096,0.5089,0.5114,0.5117,0.5115,0.5112,0.5116,0.5116,0.5121,0.5117,0.5107,0.5106,0.5106,0.5106,0,0.5083,0.5074,0.5101,0.5098,0.5098,0.5119,0.5116,0.5131,0.5126,0.5146,0.515,0.5142,0.5157,0.5147,0.5163,0.5158,0.5191,0.5184,0.519,0.5188,0.5213,0.5211,0.5298,0.5308,0.5228,0.5229,0.523,0,0.5123,0.5142,0.5141,0.515,0.5152,0.5166,0.5174,0.516,0.5169,0.5174,0.5188,0.5202,0.5212,0.5237,0.5232,0.5244,0.5237,0.5267,0.5238,0.5241,0.5237,0.5236,0.5237,0.5272,0.5273,0.5274,0.5275,0,0.5196,0.519,0.5201,0.5211,0.5221,0.5228,0.5233,0.5242,0.5228,0.5239,0.5254,0.5261,0.5277,0.529,0.5299,0.53,0.5285,0.5283,0.529,0.5294,0.5296,0.5295,0.5205,0.5282,0.5281,0.528,0.528,0.528,0.525,0.5265,0.5267,0.528,0.5282,0.5288,0.5301,0.5298,0.531,0.5321,0.5312,0.5329,0.5332,0.5343,0.5346,0.5359,0.5347,0.5356,0.5359,0.5361,0.5364,0.5294,0.5361,0.5361,0.536,0.536,0.536,0,0.5321,0.532,0.5333,0.5341,0.5351,0.5335,0.5341,0.535,0.5366,0.5369,0.5379,0.5396,0.5408,0.5405,0.5416,0.5427,0.5421,0.5431,0.543,0.543,0.5375,0.5368,0.5436,0.5436,0.5436,0.5436,0.5436,0.5436,0.5359,0.5384,0.5378,0.5404,0.5404,0.542,0.5425,0.5429,0.5432,0.5451,0.5461,0.5459,0.5459,0.547,0.5481,0.5479,0.5484,0.5497,0.5493,0.5441,0.5434,0.5427,0.542,0.5498,0.5498,0.5547,0.5547,0.5547]}]]